Temperature
13 13 14 14 11 10 12 12 12 13 14 15 15 16 15 16 16 16 15 16 16 17 17 17 17 17 17 17 17 17 17 17 17 17 17 18 18 18 18 18 17 17 17 16 16 16 16 16 16
13 13 13 13 10 11 12 12 12 13 14 14 15 15 15 15 15 15 15 15 15 16 16 16 17 17 17 17 17 17 17 17 17 17 17 17 17 17 17 17 17 17 16 16 16 16 16 16 16
12 13 13 9 10 11 12 12 12 13 13 14 14 14 14 14 14 14 14 15 15 15 16 16 16 16 16 17 17 17 17 17 17 17 17 17 17 17 17 17 16 16 16 16 16 16 16 16 15
12 12 11 9 11 10 11 11 11 11 12 13 12 12 13 13 13 13 14 15 15 15 15 15 16 16 16 16 16 16 16 17 17 17 17 17 17 17 17 16 16 16 16 16 16 16 16 15 15
12 12 9 9 10 10 10 10 11 10 11 11 11 10 12 13 13 13 14 14 15 15 15 15 15 15 16 16 16 16 16 16 16 16 16 16 16 16 16 16 16 16 16 16 16 16 15 15 15
11 8 8 9 9 9 9 10 10 9 10 11 10 10 12 13 13 13 13 14 14 14 14 14 15 15 15 15 16 16 16 16 16 16 16 16 16 16 16 16 16 15 15 15 15 15 15 15 14
9 7 8 8 8 9 9 10 9 9 9 10 10 10 11 12 12 12 13 13 13 14 14 14 14 14 15 15 15 15 15 15 16 16 16 16 16 16 16 15 15 15 15 15 15 15 15 14 14
10 7 8 7 8 8 9 9 9 9 9 10 10 9 10 11 11 11 12 12 13 13 13 14 14 14 14 14 15 15 15 15 15 15 15 15 15 15 15 15 15 15 15 15 15 15 15 14 14
9 6 7 7 8 8 8 8 9 9 9 9 10 10 10 10 10 11 11 12 12 12 13 13 13 14 14 14 14 14 14 15 15 15 15 15 15 15 15 15 15 15 15 15 15 14 14 14 14
8 6 7 7 7 7 8 8 8 8 8 8 9 9 10 10 10 10 10 10 11 12 12 12 13 13 13 14 14 14 14 14 14 14 14 15 15 15 15 15 15 15 15 14 14 14 14 14 13
7 6 7 7 7 7 7 7 7 7 6 8 9 9 9 9 9 9 9 9 10 10 11 11 12 12 13 13 13 13 13 13 14 14 14 14 14 14 14 14 14 14 14 14 14 14 13 13 13
6 6 7 7 7 7 7 7 7 7 8 9 8 8 8 8 8 8 8 9 9 9 10 11 11 11 12 12 12 13 13 13 13 13 14 14 14 14 14 14 14 14 14 14 14 14 13 13 13
6 6 6 6 6 6 6 6 6 7 8 8 8 8 8 8 8 8 8 8 9 9 10 10 10 11 11 11 12 12 12 12 13 13 13 13 13 14 14 14 14 14 14 14 14 14 13 13 13
5 5 5 6 6 6 6 6 6 7 8 8 7 7 7 7 7 7 7 8 8 8 9 9 10 10 10 11 11 12 12 12 12 12 13 13 13 13 13 13 13 13 13 13 14 13 13 13 13
5 4 4 5 5 6 5 5 5 7 7 7 7 6 6 6 6 6 7 7 7 8 8 9 9 9 9 10 10 11 11 11 11 12 12 12 12 12 13 13 13 13 13 13 13 13 13 12 12
4 3 4 5 5 6 5 4 6 7 6 6 6 6 6 6 6 6 6 6 7 7 7 8 8 8 9 9 9 10 10 10 11 11 11 12 12 12 12 12 12 13 13 13 12 12 12 12 12
3 3 3 4 5 5 5 4 5 7 6 5 5 5 5 6 6 6 6 6 6 6 7 7 8 8 8 8 9 9 9 10 10 10 10 11 11 11 11 12 12 12 12 12 12 12 12 12 12
4 3 2 3 4 4 3 4 5 6 5 5 5 5 5 5 5 5 5 6 6 6 6 7 7 7 8 8 8 8 9 9 9 10 10 10 10 11 11 11 11 12 12 12 12 12 11 11 11
3 3 2 3 4 4 3 4 4 5 4 4 4 4 5 5 5 5 5 5 6 6 6 6 6 7 7 7 7 8 8 9 9 9 9 9 10 10 10 10 10 11 11 11 11 11 11 10 10
3 2 2 3 4 4 2 3 3 4 4 4 4 4 5 5 5 5 5 5 5 6 6 6 6 6 6 6 7 7 8 8 8 9 9 9 9 9 9 10 10 10 11 11 11 11 10 10 10
3 2 2 3 3 2 2 2 3 4 4 4 4 4 4 5 5 5 5 5 5 5 5 5 6 6 6 6 6 7 7 7 8 8 8 9 9 9 9 9 9 10 10 10 11 10 10 10 10
3 4 3 3 1 1 1 1 2 3 2 3 3 4 4 5 4 4 4 4 4 5 5 5 5 5 5 6 6 6 6 7 7 8 8 8 8 9 9 9 9 9 10 10 10 10 10 10 9
3 3 2 2 1 -1 0 -0 2 2 2 3 3 4 4 5 4 4 4 4 4 4 4 4 5 5 5 5 6 6 6 6 7 7 7 8 8 8 9 9 9 9 9 10 10 10 10 10 10
3 2 1 -0 -1 -0 0 -0 1 1 2 2 2 4 4 4 4 4 4 4 4 4 4 4 4 5 5 5 5 6 6 6 6 7 7 7 7 8 8 8 9 9 9 9 10 10 10 10 10
2 1 1 1 -1 0 1 0 1 2 2 2 2 3 4 4 4 4 4 4 4 4 4 4 4 4 4 5 5 5 6 6 6 6 6 7 7 7 8 8 8 9 9 9 9 10 10 10 10
2 1 1 1 0 0 0 0 1 2 2 3 3 3 4 4 4 4 4 4 3 3 3 3 3 4 4 4 5 5 5 6 6 6 6 6 7 7 8 8 8 8 9 9 9 9 10 10 10
1 1 1 -1 -2 -2 -1 -1 0 2 2 2 2 3 3 4 4 4 4 3 3 3 3 3 3 3 3 4 4 5 5 5 6 6 6 6 7 7 7 8 8 8 8 9 9 9 9 9 9
1 -0 -1 -1 -1 -0 -1 -1 1 1 2 2 1 2 3 4 4 3 3 3 3 3 3 3 3 3 3 3 4 4 5 5 5 5 6 6 6 7 7 7 8 8 8 8 9 9 9 9 9
0 -0 -1 -1 -1 -1 -1 1 1 1 1 1 1 2 3 3 3 3 3 3 3 3 3 2 2 3 3 3 3 4 4 4 5 5 5 6 6 6 7 7 7 8 8 8 8 8 9 9 9
0 -1 -1 -1 -2 -3 -2 1 3 1 1 1 1 3 3 3 3 3 3 3 3 3 2 2 2 2 2 3 3 4 4 4 4 5 5 5 6 6 6 7 7 7 8 8 8 8 8 8 9
Wind_Speed
10 6 3 4 5 3 4 4 2 2 2 3 4 2 1 1 1 2 3 7 10 7 7 6 5 2 3 6 7 8 8 10 11 13 14 16 17 18 19 19 19 18 17 17 16 16 16 16 15
4 3 5 5 4 3 5 3 3 1 3 6 5 3 3 2 2 2 6 11 10 8 9 8 8 4 2 4 6 7 8 9 10 12 14 15 17 18 19 19 19 18 17 17 17 16 16 16 15
3 5 4 4 4 6 3 0 2 4 4 5 5 4 2 2 3 3 6 10 10 9 10 10 9 7 4 3 5 7 8 8 9 11 13 15 17 18 18 18 18 18 18 17 17 17 17 16 16
4 5 5 3 5 4 2 2 4 5 5 5 4 5 4 2 2 3 8 9 10 9 11 10 10 8 5 4 3 5 7 8 9 10 12 13 16 17 18 18 18 18 18 18 18 17 17 17 16
4 5 3 0 4 2 2 4 3 3 4 4 4 4 5 2 2 6 9 10 9 9 10 11 10 9 6 5 4 5 7 7 8 10 11 13 13 16 18 18 18 19 19 18 18 18 18 18 17
5 4 3 4 4 3 2 4 2 3 4 4 3 4 6 3 6 9 10 10 8 8 8 10 10 10 8 6 6 5 6 8 8 9 11 12 13 13 16 18 19 19 19 19 19 19 19 18 18
5 4 4 3 3 3 2 4 2 4 5 5 3 4 6 6 8 10 10 9 8 7 7 8 9 8 8 8 7 6 6 8 9 9 10 11 13 13 14 16 18 19 20 20 20 20 20 19 19
4 4 2 2 3 4 3 4 2 3 6 4 2 3 6 8 11 11 10 8 8 7 7 6 8 7 6 7 7 7 7 7 10 10 9 10 11 13 14 14 16 18 19 20 20 20 20 20 19
4 3 3 4 3 3 3 5 5 4 5 5 4 6 7 10 12 11 10 10 9 10 8 7 6 6 5 6 7 6 6 6 7 8 8 7 8 9 11 12 15 17 18 20 21 21 20 20 19
4 3 5 2 2 3 5 5 6 5 7 6 8 8 8 9 11 11 11 12 12 12 11 7 6 6 5 5 5 4 5 4 5 5 6 6 6 7 8 10 13 16 17 18 20 20 19 16 14
2 4 2 3 3 4 6 6 4 4 8 9 10 11 10 10 11 11 10 10 10 11 11 9 7 6 5 3 3 2 3 3 4 4 5 5 4 4 6 6 9 11 13 12 14 14 12 12 11
1 2 3 3 3 4 6 5 5 7 11 8 8 9 9 10 10 11 11 11 11 11 11 9 7 6 6 4 4 3 2 3 3 3 5 4 4 4 4 5 5 7 8 7 8 7 10 11 12
0 3 4 5 7 7 7 8 7 10 12 10 9 9 10 10 10 10 10 11 10 11 11 10 8 7 7 6 4 4 4 4 4 4 5 5 5 6 5 5 6 6 7 8 7 7 9 9 10
2 5 7 7 6 4 6 9 6 10 7 7 7 9 9 9 10 10 11 11 11 11 11 10 9 8 7 7 6 5 4 4 4 5 5 6 6 7 6 6 5 6 8 9 8 9 8 8 8
2 5 7 4 3 3 4 9 7 8 6 8 9 9 10 9 9 10 11 12 11 11 11 10 9 8 7 8 8 6 5 4 5 6 6 7 7 8 8 7 6 6 8 9 8 8 7 7 7
3 4 5 5 3 3 2 10 9 6 6 10 11 10 10 10 9 10 11 11 10 10 10 10 9 8 8 8 7 6 5 6 6 6 6 8 9 9 8 8 8 7 7 8 9 8 8 8 8
5 4 5 8 4 2 2 12 12 8 7 11 11 10 10 10 11 10 10 9 9 10 10 9 8 8 9 8 7 7 7 7 6 6 7 8 9 10 8 8 8 8 7 8 9 8 7 8 8
3 4 6 8 5 4 8 16 18 11 9 10 10 10 10 10 11 10 9 10 9 9 9 9 9 8 8 7 6 5 6 6 6 7 8 9 8 10 9 8 9 9 7 8 9 10 8 7 8
3 5 10 10 6 6 12 18 19 13 9 9 8 9 10 10 9 9 9 10 10 9 9 9 9 8 6 5 4 5 6 5 6 7 9 10 10 10 9 8 9 9 9 11 11 8 10 7 6
4 6 8 9 5 7 11 17 15 10 7 7 7 8 9 10 10 10 10 9 9 9 10 9 8 8 7 6 5 5 6 6 7 6 8 10 11 11 10 10 10 10 9 11 12 10 8 7 8
5 6 7 9 10 5 8 10 6 5 4 5 6 7 8 9 10 11 11 11 10 10 10 10 9 9 8 6 5 5 5 5 5 6 7 9 11 12 12 11 11 11 11 12 13 13 12 10 8
6 6 7 8 7 6 4 7 8 6 7 7 8 7 9 9 9 10 11 12 11 11 10 10 9 9 8 6 5 6 7 8 8 7 7 8 11 12 12 11 11 11 11 12 14 13 10 13 11
6 5 5 4 3 4 2 4 10 5 7 8 8 8 9 9 9 10 11 11 12 10 10 9 9 9 8 7 6 6 8 8 7 6 8 8 9 12 12 11 10 11 11 12 13 13 12 12 12
2 4 2 3 3 4 4 4 9 5 7 7 6 8 9 10 10 10 10 11 11 10 10 10 10 10 9 8 7 7 9 10 9 8 8 8 7 9 12 11 10 11 10 12 12 13 15 13 12
4 5 5 7 4 6 2 5 10 9 7 7 9 10 10 10 10 11 12 12 12 12 12 11 10 11 10 9 9 9 10 10 10 10 9 8 7 8 11 11 10 10 10 11 11 12 15 15 15
1 4 4 3 5 7 4 7 9 8 7 7 8 9 9 11 10 11 12 11 12 12 12 11 11 11 11 10 10 10 10 7 8 9 8 9 8 8 10 11 11 12 12 12 12 11 13 14 15
3 3 4 3 3 6 7 8 11 6 7 7 7 8 10 11 11 12 12 11 11 12 12 11 11 11 11 11 11 11 10 8 8 8 7 7 7 7 9 11 12 12 13 13 13 11 13 13 14
4 6 4 3 3 7 8 7 6 8 9 8 8 9 11 11 11 12 11 11 11 11 11 11 10 11 11 11 10 10 9 9 9 7 7 7 7 7 9 10 11 12 12 13 13 12 12 13 13
4 4 4 3 4 4 7 9 7 9 8 9 10 10 11 11 12 12 12 11 11 11 10 10 10 11 11 10 10 11 9 9 8 7 7 7 7 8 9 9 10 12 12 13 13 13 14 14 14
6 7 7 5 6 5 5 11 7 8 8 8 10 11 11 11 11 11 12 11 10 10 10 10 11 11 11 10 10 10 9 8 8 7 7 7 8 8 8 9 10 10 11 13 14 15 15 15 16
Wind_Direction
346 352 49 55 60 61 231 239 232 305 314 315 297 271 203 203 183 179 301 334 338 340 342 331 328 312 212 193 186 187 181 177 175 174 172 169 167 165 164 163 161 159 157 155 152 149 147 144 142
347 13 53 64 108 194 248 236 235 256 313 329 345 1 19 354 3 23 342 332 340 348 350 342 338 315 273 215 196 191 190 186 184 180 179 176 174 171 169 169 167 164 162 158 156 153 149 147 145
14 46 78 88 152 193 207 237 285 315 339 7 357 359 2 325 359 354 320 328 346 351 354 349 343 329 295 263 217 204 197 194 192 190 186 184 181 179 176 174 171 168 166 162 160 156 153 151 149
59 48 57 95 213 223 233 313 321 334 351 15 8 328 319 316 353 307 323 344 353 346 345 347 348 342 324 293 255 215 203 200 198 196 195 191 189 186 184 180 176 171 169 166 163 161 158 157 155
56 75 79 234 242 253 279 315 334 349 338 345 354 312 290 268 311 330 342 346 347 338 340 341 341 336 330 317 292 248 218 208 206 204 202 197 193 191 187 184 180 175 173 170 168 166 164 162 160
58 69 113 225 245 276 305 321 338 343 326 327 338 301 273 282 337 337 339 337 333 329 330 333 331 334 326 315 302 290 243 222 217 214 210 204 198 193 191 189 184 180 177 174 172 171 168 167 163
101 107 169 208 258 284 312 339 16 326 315 301 294 288 281 305 320 327 329 328 328 330 327 331 325 321 325 321 307 297 280 242 227 224 219 210 203 198 195 193 188 184 183 179 177 175 172 171 166
110 107 141 221 232 252 320 334 316 304 284 286 269 260 277 298 317 323 324 324 325 328 330 326 324 317 318 317 313 300 300 278 243 229 226 221 208 203 199 193 191 188 187 184 182 179 176 173 169
83 92 198 221 222 259 323 324 307 286 273 288 263 252 273 306 319 323 326 325 324 325 325 317 322 313 311 314 313 308 296 297 267 235 227 222 214 203 201 196 194 191 190 188 186 183 179 174 171
84 161 215 224 219 276 301 294 297 311 298 287 288 288 298 313 322 319 321 320 321 318 316 315 316 315 301 305 312 303 291 287 282 249 225 220 215 207 201 197 195 193 190 189 188 185 180 172 165
108 187 235 271 273 281 288 287 280 274 276 264 278 293 306 313 317 315 310 303 303 302 307 311 310 313 300 279 284 297 297 280 279 267 237 221 208 202 193 191 191 190 188 185 183 182 173 166 161
75 250 246 270 295 295 276 278 275 240 250 266 278 290 300 307 309 307 307 304 302 303 300 303 306 310 301 281 262 253 261 264 255 261 248 216 206 199 197 197 195 191 185 181 172 171 167 167 168
287 286 289 280 290 275 267 261 263 261 265 284 293 299 298 299 300 298 298 298 295 296 298 299 301 299 302 290 266 261 240 247 251 249 246 223 209 205 200 203 197 194 187 182 177 175 175 174 173
290 289 292 287 281 276 271 275 260 269 283 295 298 295 293 293 295 302 309 309 305 297 295 294 295 289 293 291 271 254 242 242 249 243 243 232 215 208 202 203 205 199 191 187 183 181 178 181 178
337 326 319 294 282 287 308 295 238 267 307 307 302 298 298 296 298 300 301 302 300 295 291 288 288 283 284 286 273 259 245 239 241 248 239 236 224 212 204 202 204 205 193 187 182 181 177 178 181
26 18 330 306 307 300 338 286 275 294 315 304 302 302 300 299 296 295 297 300 301 299 293 288 287 287 282 274 270 262 249 238 237 243 237 234 229 215 206 206 205 201 195 189 187 184 185 181 183
29 346 297 301 292 296 264 271 280 300 302 296 299 302 301 302 303 299 299 299 300 297 293 293 293 288 285 273 264 258 248 239 238 240 235 230 230 218 211 211 206 194 202 197 192 188 186 185 183
288 286 280 280 288 286 272 272 285 293 283 284 291 299 304 302 300 301 303 303 300 298 298 294 295 287 281 278 268 261 249 241 237 236 231 226 230 220 213 215 206 195 203 202 192 187 186 187 179
216 241 270 271 275 289 272 279 286 288 283 281 289 298 302 303 301 306 309 312 312 309 306 296 295 295 290 283 266 259 255 245 238 235 230 223 224 218 211 219 209 202 206 208 194 188 181 184 168
234 266 273 286 292 293 285 284 278 274 261 262 279 290 298 306 312 315 315 316 318 314 308 303 299 296 285 273 262 252 260 249 241 240 233 225 223 217 215 216 214 208 208 209 198 183 182 184 178
257 237 257 281 314 312 314 298 281 284 266 278 280 285 294 297 304 311 316 317 318 315 308 306 304 298 289 279 278 274 270 262 250 246 239 228 225 218 212 215 218 214 207 208 201 191 185 185 190
275 248 258 287 317 303 10 304 285 286 297 291 293 299 298 300 302 309 315 316 312 308 309 305 301 297 294 286 276 265 259 260 254 244 242 236 225 219 216 212 215 217 214 206 202 198 192 183 188
247 288 283 285 242 296 276 247 285 303 288 288 292 297 300 299 300 303 305 305 305 307 309 306 304 307 305 297 282 273 265 263 260 244 238 235 231 221 217 212 212 216 217 209 202 199 194 192 191
282 340 11 54 69 294 244 211 283 260 249 281 290 298 301 304 304 303 303 305 308 313 313 312 313 312 307 299 292 275 270 268 260 249 242 239 235 225 216 213 211 214 216 211 207 203 198 197 194
49 44 1 351 352 261 255 242 256 259 247 255 279 292 299 303 308 311 313 313 314 316 315 315 313 310 311 308 299 287 274 267 256 248 243 243 236 228 217 213 212 214 216 215 210 208 204 198 195
149 129 146 258 273 293 295 252 258 265 272 266 271 283 299 306 308 307 307 309 310 311 311 311 311 309 311 310 305 293 282 269 258 247 242 240 238 231 219 214 212 214 213 215 211 209 210 202 199
144 173 161 160 287 284 273 280 296 274 285 283 284 295 300 302 304 306 309 309 309 310 306 304 305 308 309 308 307 297 285 275 269 262 253 245 244 237 222 218 215 213 213 212 209 209 209 205 201
163 148 113 144 268 281 286 272 262 281 283 292 293 293 295 300 303 306 308 306 303 302 303 304 304 305 304 306 305 304 291 279 272 259 253 251 245 245 229 222 217 213 213 210 208 207 205 206 203
146 154 160 171 192 224 282 274 231 243 261 275 283 286 292 298 301 302 304 303 302 306 308 308 310 310 310 309 308 306 297 289 278 259 251 247 243 244 237 228 221 216 215 208 203 205 202 206 204
183 188 165 190 233 216 250 273 255 242 258 271 284 292 298 299 300 299 301 304 308 310 312 314 315 314 311 310 309 307 300 296 287 272 260 246 242 245 243 233 224 221 217 205 199 201 201 205 204
Height
1485 1486 1488 1491 1495 1504 1502 1496 1493 1492 1490 1489 1488 1487 1487 1489 1490 1496 1492 1487 1485 1483 1483 1482 1483 1483 1484 1485 1486 1487 1489 1491 1492 1494 1495 1497 1498 1500 1501 1502 1504 1505 1507 1508 1509 1511 1512 1512 1513
1485 1487 1490 1491 1499 1505 1500 1494 1493 1492 1491 1488 1487 1487 1486 1487 1489 1489 1487 1485 1484 1483 1482 1482 1483 1483 1483 1485 1486 1487 1488 1490 1491 1493 1495 1496 1498 1499 1500 1502 1503 1504 1506 1507 1509 1510 1511 1512 1513
1486 1488 1490 1494 1500 1501 1496 1493 1492 1491 1490 1489 1488 1487 1488 1488 1489 1488 1487 1485 1484 1483 1482 1482 1482 1482 1483 1484 1485 1486 1487 1489 1490 1492 1493 1495 1496 1498 1499 1501 1502 1503 1505 1506 1508 1509 1510 1511 1512
1487 1489 1491 1497 1497 1496 1494 1493 1492 1491 1489 1489 1489 1488 1488 1489 1488 1488 1486 1484 1483 1482 1482 1481 1481 1481 1482 1482 1483 1485 1486 1487 1489 1490 1492 1493 1495 1496 1498 1499 1500 1502 1503 1505 1506 1507 1509 1510 1511
1487 1489 1496 1500 1497 1495 1493 1492 1491 1491 1491 1490 1490 1488 1486 1487 1486 1486 1484 1482 1481 1480 1480 1480 1480 1479 1480 1480 1481 1483 1484 1485 1487 1488 1489 1491 1492 1494 1495 1497 1499 1500 1501 1503 1504 1506 1507 1509 1510
1488 1491 1501 1500 1497 1494 1493 1492 1491 1491 1490 1490 1489 1487 1484 1485 1484 1483 1482 1480 1479 1478 1478 1478 1478 1478 1477 1478 1479 1480 1481 1483 1484 1485 1487 1488 1490 1491 1493 1495 1497 1498 1500 1501 1502 1504 1506 1507 1509
1490 1495 1499 1498 1498 1495 1493 1492 1492 1491 1490 1490 1489 1486 1483 1483 1482 1480 1479 1478 1477 1476 1475 1475 1475 1475 1475 1475 1476 1477 1478 1479 1481 1482 1484 1485 1487 1488 1490 1492 1494 1495 1497 1499 1500 1502 1504 1505 1507
1489 1495 1498 1500 1498 1495 1494 1492 1491 1491 1489 1488 1488 1485 1482 1481 1479 1477 1476 1474 1473 1473 1472 1472 1472 1472 1472 1471 1472 1473 1474 1475 1477 1479 1480 1482 1483 1485 1487 1489 1490 1492 1494 1496 1498 1500 1502 1503 1505
1490 1499 1500 1498 1497 1494 1493 1492 1490 1489 1487 1486 1485 1483 1481 1479 1476 1473 1471 1469 1468 1468 1468 1468 1467 1468 1468 1468 1468 1469 1470 1471 1473 1474 1476 1478 1479 1481 1483 1485 1487 1489 1491 1493 1495 1497 1499 1501 1503
1491 1499 1496 1495 1494 1493 1492 1491 1489 1487 1485 1482 1481 1479 1478 1475 1473 1470 1467 1465 1463 1462 1463 1463 1462 1462 1463 1463 1463 1464 1465 1466 1468 1470 1471 1473 1475 1477 1479 1481 1483 1485 1487 1490 1492 1494 1497 1498 1500
1492 1495 1494 1493 1492 1492 1491 1489 1488 1486 1483 1480 1478 1475 1473 1471 1469 1467 1464 1463 1461 1459 1458 1458 1457 1457 1457 1458 1458 1459 1460 1461 1463 1464 1466 1468 1470 1472 1474 1476 1479 1481 1483 1485 1488 1490 1492 1494 1496
1493 1493 1492 1491 1491 1490 1489 1487 1485 1482 1478 1476 1475 1472 1470 1467 1465 1463 1461 1458 1457 1455 1453 1453 1452 1451 1451 1452 1452 1453 1454 1455 1457 1458 1461 1462 1464 1466 1468 1471 1473 1476 1478 1481 1483 1485 1488 1491 1493
1493 1492 1491 1490 1489 1487 1486 1484 1482 1476 1474 1473 1471 1469 1466 1463 1461 1459 1457 1455 1453 1450 1448 1448 1446 1446 1445 1446 1446 1447 1448 1449 1451 1453 1454 1456 1458 1460 1462 1465 1468 1470 1473 1475 1478 1481 1484 1486 1489
1493 1492 1490 1487 1486 1485 1483 1480 1479 1471 1470 1469 1467 1464 1462 1460 1457 1454 1452 1449 1447 1445 1443 1442 1441 1441 1440 1439 1440 1441 1442 1443 1444 1446 1448 1450 1452 1454 1456 1459 1461 1465 1468 1471 1473 1476 1479 1482 1485
1492 1492 1489 1485 1484 1483 1483 1478 1473 1468 1468 1465 1463 1460 1458 1455 1453 1450 1448 1445 1443 1440 1438 1437 1436 1435 1434 1433 1434 1434 1435 1436 1438 1439 1442 1444 1445 1447 1449 1452 1455 1459 1462 1465 1468 1471 1474 1477 1480
1493 1495 1494 1486 1484 1482 1485 1479 1467 1466 1465 1462 1459 1456 1454 1451 1449 1446 1444 1441 1439 1436 1434 1431 1430 1429 1428 1427 1427 1427 1428 1429 1431 1432 1435 1437 1439 1441 1443 1445 1448 1452 1456 1459 1462 1465 1468 1472 1475
1499 1502 1498 1490 1484 1483 1483 1476 1464 1464 1462 1459 1455 1452 1449 1447 1444 1442 1439 1436 1434 1431 1429 1426 1424 1423 1422 1421 1421 1421 1422 1423 1424 1425 1427 1429 1431 1434 1436 1438 1441 1445 1449 1452 1455 1459 1463 1466 1470
1501 1502 1499 1494 1485 1483 1482 1472 1461 1459 1459 1455 1452 1449 1446 1442 1440 1437 1435 1432 1429 1427 1423 1420 1419 1417 1416 1414 1414 1414 1415 1416 1417 1418 1420 1422 1424 1426 1428 1431 1434 1438 1441 1445 1448 1452 1457 1461 1465
1498 1500 1499 1490 1483 1483 1476 1468 1458 1454 1454 1451 1448 1446 1443 1439 1437 1434 1431 1427 1424 1421 1419 1417 1414 1411 1410 1408 1407 1407 1408 1408 1410 1411 1412 1414 1417 1419 1422 1424 1427 1430 1434 1438 1441 1445 1450 1455 1461
1497 1499 1497 1487 1481 1480 1474 1465 1455 1451 1449 1448 1446 1443 1440 1437 1433 1430 1427 1424 1420 1416 1413 1410 1408 1406 1404 1403 1401 1401 1401 1402 1403 1403 1405 1407 1409 1411 1414 1416 1420 1423 1426 1430 1435 1438 1443 1448 1454
1493 1495 1492 1489 1482 1479 1478 1463 1454 1448 1446 1445 1443 1440 1438 1435 1431 1427 1424 1420 1416 1413 1410 1407 1404 1401 1399 1398 1396 1395 1396 1395 1396 1396 1397 1398 1401 1404 1407 1409 1413 1416 1419 1422 1426 1430 1435 1440 1447
1492 1487 1487 1486 1490 1489 1485 1478 1455 1449 1446 1442 1439 1437 1435 1432 1429 1425 1421 1417 1413 1410 1406 1403 1400 1397 1394 1393 1392 1390 1389 1388 1388 1389 1390 1391 1393 1396 1399 1402 1405 1409 1412 1414 1418 1423 1428 1433 1438
1488 1485 1486 1486 1489 1494 1487 1488 1459 1452 1447 1440 1437 1435 1433 1430 1427 1424 1419 1415 1411 1407 1402 1398 1394 1391 1388 1386 1385 1384 1383 1382 1382 1383 1384 1385 1386 1388 1391 1394 1398 1401 1405 1407 1411 1415 1421 1425 1430
1486 1486 1486 1491 1494 1496 1484 1486 1464 1453 1445 1439 1435 1433 1430 1428 1424 1421 1417 1412 1407 1402 1398 1393 1389 1386 1384 1382 1380 1378 1377 1376 1375 1376 1377 1377 1378 1380 1383 1386 1390 1393 1398 1400 1404 1408 1414 1418 1423
1488 1493 1496 1495 1501 1491 1480 1479 1461 1442 1438 1437 1434 1431 1428 1425 1422 1417 1412 1408 1403 1398 1393 1389 1385 1381 1378 1376 1374 1373 1371 1369 1368 1368 1369 1370 1370 1372 1375 1378 1382 1386 1390 1394 1398 1402 1407 1411 1415
1490 1493 1501 1502 1500 1488 1480 1473 1451 1438 1434 1432 1431 1429 1426 1422 1419 1415 1410 1406 1401 1396 1390 1386 1381 1377 1373 1370 1368 1366 1364 1362 1362 1362 1362 1362 1363 1365 1367 1371 1375 1379 1382 1386 1391 1395 1400 1404 1408
1491 1494 1495 1504 1507 1505 1482 1469 1449 1435 1432 1429 1428 1426 1423 1420 1416 1412 1408 1403 1398 1393 1387 1382 1377 1373 1369 1365 1362 1360 1358 1356 1355 1354 1355 1355 1356 1359 1360 1364 1367 1370 1374 1378 1382 1387 1392 1396 1401
1487 1492 1500 1503 1504 1496 1481 1472 1454 1437 1431 1428 1426 1423 1420 1417 1414 1409 1405 1400 1395 1390 1384 1379 1374 1368 1364 1360 1357 1354 1351 1350 1349 1349 1348 1349 1350 1352 1354 1355 1358 1362 1366 1369 1374 1379 1384 1389 1393
1489 1492 1493 1498 1499 1499 1486 1457 1437 1434 1428 1427 1423 1420 1417 1413 1410 1406 1401 1396 1391 1386 1380 1374 1369 1364 1359 1354 1351 1348 1345 1344 1343 1343 1343 1343 1345 1346 1348 1349 1351 1354 1357 1360 1365 1370 1377 1381 1387
1482 1484 1490 1494 1495 1497 1491 1453 1428 1427 1424 1423 1420 1417 1414 1410 1406 1402 1397 1392 1387 1381 1376 1370 1364 1359 1354 1350 1346 1342 1340 1338 1338 1337 1337 1338 1339 1341 1342 1344 1344 1346 1348 1352 1357 1363 1369 1374 1379